Year,Month,Day,Hour,Minute,Value (Times are PST for windspeed in km/hr)
2006,12,25,00,00,16.50
2006,12,25,00,01,10.60
2006,12,25,00,02,10.00
2006,12,25,00,03,20.40
2006,12,25,00,04,18.80
2006,12,25,00,05,17.00
2006,12,25,00,06,14.70
2006,12,25,00,07,12.60
2006,12,25,00,08,9.30
2006,12,25,00,09,8.40
2006,12,25,00,10,7.90
2006,12,25,00,11,9.50
2006,12,25,00,12,10.00
2006,12,25,00,13,10.00
2006,12,25,00,14,4.50
2006,12,25,00,15,4.90
2006,12,25,00,16,3.80
2006,12,25,00,17,3.10
2006,12,25,00,18,3.60
2006,12,25,00,19,2.70
2006,12,25,00,20,1.10
2006,12,25,00,21,0.20
2006,12,25,00,22,1.90
2006,12,25,00,23,1.90
2006,12,25,00,24,6.70
2006,12,25,00,25,4.10
2006,12,25,00,26,2.20
2006,12,25,00,27,0.30
2006,12,25,00,28,1.00
2006,12,25,00,29,0.70
2006,12,25,00,30,4.80
2006,12,25,00,31,3.90
2006,12,25,00,32,2.70
2006,12,25,00,33,3.70
2006,12,25,00,34,5.50
2006,12,25,00,35,4.30
2006,12,25,00,36,8.00
2006,12,25,00,37,8.80
2006,12,25,00,38,6.70
2006,12,25,00,39,7.00
2006,12,25,00,40,7.30
2006,12,25,00,41,6.00
2006,12,25,00,42,3.40
2006,12,25,00,43,3.00
2006,12,25,00,44,2.70
2006,12,25,00,45,2.90
2006,12,25,00,46,3.60
2006,12,25,00,47,3.00
2006,12,25,00,48,5.00
2006,12,25,00,49,5.00
2006,12,25,00,50,4.70
2006,12,25,00,51,3.50
2006,12,25,00,52,4.00
2006,12,25,00,53,4.20
2006,12,25,00,54,4.40
2006,12,25,00,55,3.60
2006,12,25,00,56,2.60
2006,12,25,00,57,4.40
2006,12,25,00,58,4.30
2006,12,25,00,59,4.40
2006,12,25,01,00,4.30
2006,12,25,01,01,4.60
2006,12,25,01,02,3.30
2006,12,25,01,03,2.90
2006,12,25,01,04,2.70
2006,12,25,01,05,3.10
2006,12,25,01,06,3.60
2006,12,25,01,07,6.10
2006,12,25,01,08,7.10
2006,12,25,01,09,8.00
2006,12,25,01,10,7.00
2006,12,25,01,11,5.70
2006,12,25,01,12,6.50
2006,12,25,01,13,6.30
2006,12,25,01,14,7.30
2006,12,25,01,15,9.10
2006,12,25,01,16,8.60
2006,12,25,01,17,4.40
2006,12,25,01,18,4.60
2006,12,25,01,19,6.30
2006,12,25,01,20,6.10
2006,12,25,01,21,6.90
2006,12,25,01,22,8.70
2006,12,25,01,23,9.80
2006,12,25,01,24,7.10
2006,12,25,01,25,6.00
2006,12,25,01,26,7.20
2006,12,25,01,27,5.10
2006,12,25,01,28,6.60
2006,12,25,01,29,6.90
2006,12,25,01,30,6.50
2006,12,25,01,31,5.40
2006,12,25,01,32,4.70
2006,12,25,01,33,6.20
2006,12,25,01,34,4.70
2006,12,25,01,35,7.90
2006,12,25,01,36,9.20
2006,12,25,01,37,11.40
2006,12,25,01,38,8.60
2006,12,25,01,39,7.60
2006,12,25,01,40,8.90
2006,12,25,01,41,8.30
2006,12,25,01,42,8.10
2006,12,25,01,43,8.10
2006,12,25,01,44,7.20
2006,12,25,01,45,5.70
2006,12,25,01,46,5.60
2006,12,25,01,47,4.90
2006,12,25,01,48,4.30
2006,12,25,01,49,6.40
2006,12,25,01,50,7.30
2006,12,25,01,51,8.70
2006,12,25,01,52,7.70
2006,12,25,01,53,8.30
2006,12,25,01,54,7.40
2006,12,25,01,55,7.30
2006,12,25,01,56,8.40
2006,12,25,01,57,7.70
2006,12,25,01,58,9.10
2006,12,25,01,59,8.90
2006,12,25,02,00,8.30
2006,12,25,02,01,10.30
2006,12,25,02,02,12.20
2006,12,25,02,03,7.20
2006,12,25,02,04,10.30
2006,12,25,02,05,9.10
2006,12,25,02,06,8.10
2006,12,25,02,07,6.70
2006,12,25,02,08,5.60
2006,12,25,02,09,7.00
2006,12,25,02,10,9.50
2006,12,25,02,11,8.30
2006,12,25,02,12,6.30
2006,12,25,02,13,5.70
2006,12,25,02,14,7.20
2006,12,25,02,15,8.90
2006,12,25,02,16,8.00
2006,12,25,02,17,8.00
2006,12,25,02,18,9.60
2006,12,25,02,19,8.80
2006,12,25,02,20,9.10
2006,12,25,02,21,10.50
2006,12,25,02,22,9.70
2006,12,25,02,23,9.90
2006,12,25,02,24,8.50
2006,12,25,02,25,8.50
2006,12,25,02,26,7.60
2006,12,25,02,27,6.30
2006,12,25,02,28,7.20
2006,12,25,02,29,9.80
2006,12,25,02,30,8.00
2006,12,25,02,31,8.90
2006,12,25,02,32,5.00
2006,12,25,02,33,5.90
2006,12,25,02,34,6.00
2006,12,25,02,35,8.40
2006,12,25,02,36,7.20
2006,12,25,02,37,10.50
2006,12,25,02,38,11.90
2006,12,25,02,39,8.10
2006,12,25,02,40,11.30
2006,12,25,02,41,7.90
2006,12,25,02,42,7.80
2006,12,25,02,43,5.80
2006,12,25,02,44,8.90
2006,12,25,02,45,11.60
2006,12,25,02,46,7.30
2006,12,25,02,47,7.40
2006,12,25,02,48,7.40
2006,12,25,02,49,7.00
2006,12,25,02,50,6.30
2006,12,25,02,51,7.50
2006,12,25,02,52,7.70
2006,12,25,02,53,6.90
2006,12,25,02,54,8.20
2006,12,25,02,55,5.70
2006,12,25,02,56,5.10
2006,12,25,02,57,6.00
2006,12,25,02,58,8.50
2006,12,25,02,59,9.00
2006,12,25,03,00,7.20
2006,12,25,03,01,5.90
2006,12,25,03,02,5.30
2006,12,25,03,03,5.90
2006,12,25,03,04,4.00
2006,12,25,03,05,5.70
2006,12,25,03,06,4.10
2006,12,25,03,07,5.80
2006,12,25,03,08,7.80
2006,12,25,03,09,6.40
2006,12,25,03,10,6.80
2006,12,25,03,11,6.00
2006,12,25,03,12,7.20
2006,12,25,03,13,7.60
2006,12,25,03,14,7.00
2006,12,25,03,15,6.80
2006,12,25,03,16,7.50
2006,12,25,03,17,7.50
2006,12,25,03,18,7.10
2006,12,25,03,19,5.40
2006,12,25,03,20,6.80
2006,12,25,03,21,7.10
2006,12,25,03,22,5.10
2006,12,25,03,23,2.80
2006,12,25,03,24,2.90
2006,12,25,03,25,5.20
2006,12,25,03,26,6.10
2006,12,25,03,27,5.90
2006,12,25,03,28,5.60
2006,12,25,03,29,6.30
2006,12,25,03,30,6.50
2006,12,25,03,31,5.40
2006,12,25,03,32,6.40
2006,12,25,03,33,7.20
2006,12,25,03,34,7.50
2006,12,25,03,35,7.40
2006,12,25,03,36,6.80
2006,12,25,03,37,8.10
2006,12,25,03,38,8.10
2006,12,25,03,39,6.10
2006,12,25,03,40,8.00
2006,12,25,03,41,8.10
2006,12,25,03,42,8.10
2006,12,25,03,43,6.40
2006,12,25,03,44,8.00
2006,12,25,03,45,7.80
2006,12,25,03,46,7.60
2006,12,25,03,47,6.80
2006,12,25,03,48,5.30
2006,12,25,03,49,7.10
2006,12,25,03,50,6.50
2006,12,25,03,51,8.30
2006,12,25,03,52,8.00
2006,12,25,03,53,8.50
2006,12,25,03,54,8.50
2006,12,25,03,55,9.30
2006,12,25,03,56,6.60
2006,12,25,03,57,7.70
2006,12,25,03,58,7.40
2006,12,25,03,59,6.10
2006,12,25,04,00,6.50
2006,12,25,04,01,6.50
2006,12,25,04,02,5.70
2006,12,25,04,03,7.00
2006,12,25,04,04,6.90
2006,12,25,04,05,6.50
2006,12,25,04,06,8.10
2006,12,25,04,07,5.80
2006,12,25,04,08,5.40
2006,12,25,04,09,4.70
2006,12,25,04,10,4.30
2006,12,25,04,11,4.40
2006,12,25,04,12,6.10
2006,12,25,04,13,5.70
2006,12,25,04,14,5.50
2006,12,25,04,15,5.80
2006,12,25,04,16,5.20
2006,12,25,04,17,6.60
2006,12,25,04,18,8.00
2006,12,25,04,19,6.90
2006,12,25,04,20,8.60
2006,12,25,04,21,9.40
2006,12,25,04,22,6.00
2006,12,25,04,23,7.00
2006,12,25,04,24,8.10
2006,12,25,04,25,9.80
2006,12,25,04,26,11.30
2006,12,25,04,27,13.40
2006,12,25,04,28,11.90
2006,12,25,04,29,7.90
2006,12,25,04,30,11.90
2006,12,25,04,31,13.00
2006,12,25,04,32,11.70
2006,12,25,04,33,14.60
2006,12,25,04,34,11.10
2006,12,25,04,35,9.20
2006,12,25,04,36,7.90
2006,12,25,04,37,13.80
2006,12,25,04,38,9.90
2006,12,25,04,39,6.80
2006,12,25,04,40,7.70
2006,12,25,04,41,12.60
2006,12,25,04,42,6.90
2006,12,25,04,43,10.80
2006,12,25,04,44,6.30
2006,12,25,04,45,4.80
2006,12,25,04,46,5.40
2006,12,25,04,47,7.50
2006,12,25,04,48,4.40
2006,12,25,04,49,4.30
2006,12,25,04,50,3.90
2006,12,25,04,51,4.10
2006,12,25,04,52,11.60
2006,12,25,04,53,11.30
2006,12,25,04,54,9.40
2006,12,25,04,55,8.00
2006,12,25,04,56,4.40
2006,12,25,04,57,5.00
2006,12,25,04,58,6.80
2006,12,25,04,59,7.40
2006,12,25,05,00,4.00
2006,12,25,05,01,5.90
2006,12,25,05,02,6.80
2006,12,25,05,03,7.60
2006,12,25,05,04,5.50
2006,12,25,05,05,5.60
2006,12,25,05,06,2.70
2006,12,25,05,07,3.40
2006,12,25,05,08,4.80
2006,12,25,05,09,4.70
2006,12,25,05,10,5.20
2006,12,25,05,11,4.00
2006,12,25,05,12,3.10
2006,12,25,05,13,4.00
2006,12,25,05,14,4.00
2006,12,25,05,15,5.50
2006,12,25,05,16,6.80
2006,12,25,05,17,8.30
2006,12,25,05,18,8.40
2006,12,25,05,19,9.00
2006,12,25,05,20,9.70
2006,12,25,05,21,10.40
2006,12,25,05,22,10.60
2006,12,25,05,23,11.00
2006,12,25,05,24,6.10
2006,12,25,05,25,9.40
2006,12,25,05,26,10.90
2006,12,25,05,27,7.90
2006,12,25,05,28,8.60
2006,12,25,05,29,6.80
2006,12,25,05,30,6.60
2006,12,25,05,31,8.00
2006,12,25,05,32,7.70
2006,12,25,05,33,5.60
2006,12,25,05,34,4.70
2006,12,25,05,35,3.70
2006,12,25,05,36,4.30
2006,12,25,05,37,3.70
2006,12,25,05,38,3.70
2006,12,25,05,39,4.50
2006,12,25,05,40,6.70
2006,12,25,05,41,5.60
2006,12,25,05,42,3.00
2006,12,25,05,43,4.00
2006,12,25,05,44,4.40
2006,12,25,05,45,3.50
2006,12,25,05,46,4.70
2006,12,25,05,47,6.50
2006,12,25,05,48,5.00
2006,12,25,05,49,5.40
2006,12,25,05,50,7.30
2006,12,25,05,51,5.50
2006,12,25,05,52,7.10
2006,12,25,05,53,9.10
2006,12,25,05,54,7.70
2006,12,25,05,55,7.10
2006,12,25,05,56,9.30
2006,12,25,05,57,7.40
2006,12,25,05,58,6.80
2006,12,25,05,59,7.40
2006,12,25,06,00,7.30
2006,12,25,06,01,6.00
2006,12,25,06,02,6.20
2006,12,25,06,03,7.80
2006,12,25,06,04,8.80
2006,12,25,06,05,6.80
2006,12,25,06,06,7.20
2006,12,25,06,07,7.00
2006,12,25,06,08,7.30
2006,12,25,06,09,9.70
2006,12,25,06,10,7.60
2006,12,25,06,11,8.50
2006,12,25,06,12,7.30
2006,12,25,06,13,5.70
2006,12,25,06,14,4.70
2006,12,25,06,15,7.10
2006,12,25,06,16,5.70
2006,12,25,06,17,6.80
2006,12,25,06,18,5.30
2006,12,25,06,19,5.50
2006,12,25,06,20,4.30
2006,12,25,06,21,4.90
2006,12,25,06,22,4.00
2006,12,25,06,23,4.60
2006,12,25,06,24,4.60
2006,12,25,06,25,3.00
2006,12,25,06,26,5.80
2006,12,25,06,27,5.20
2006,12,25,06,28,3.10
2006,12,25,06,29,5.90
2006,12,25,06,30,5.40
2006,12,25,06,31,4.60
2006,12,25,06,32,6.80
2006,12,25,06,33,6.60
2006,12,25,06,34,5.70
2006,12,25,06,35,4.00
2006,12,25,06,36,5.60
2006,12,25,06,37,7.50
2006,12,25,06,38,5.90
2006,12,25,06,39,4.30
2006,12,25,06,40,7.60
2006,12,25,06,41,6.70
2006,12,25,06,42,4.80
2006,12,25,06,43,3.10
2006,12,25,06,44,4.40
2006,12,25,06,45,3.60
2006,12,25,06,46,3.50
2006,12,25,06,47,4.00
2006,12,25,06,48,3.00
2006,12,25,06,49,4.80
2006,12,25,06,50,2.40
2006,12,25,06,51,0.50
2006,12,25,06,52,3.10
2006,12,25,06,53,3.00
2006,12,25,06,54,1.10
2006,12,25,06,55,2.50
2006,12,25,06,56,3.10
2006,12,25,06,57,3.10
2006,12,25,06,58,3.30
2006,12,25,06,59,5.60
2006,12,25,07,00,5.60
2006,12,25,07,01,6.80
2006,12,25,07,02,5.80
2006,12,25,07,03,4.60
2006,12,25,07,04,4.90
2006,12,25,07,05,4.40
2006,12,25,07,06,2.90
2006,12,25,07,07,2.90
2006,12,25,07,08,6.30
2006,12,25,07,09,3.50
2006,12,25,07,10,3.10
2006,12,25,07,11,2.30
2006,12,25,07,12,5.60
2006,12,25,07,13,4.40
2006,12,25,07,14,2.60
2006,12,25,07,15,5.80
2006,12,25,07,16,6.20
2006,12,25,07,17,5.60
2006,12,25,07,18,5.60
2006,12,25,07,19,2.80
2006,12,25,07,20,8.10
2006,12,25,07,21,5.80
2006,12,25,07,22,5.60
2006,12,25,07,23,8.10
2006,12,25,07,24,10.50
2006,12,25,07,25,12.20
2006,12,25,07,26,7.30
2006,12,25,07,27,6.00
2006,12,25,07,28,4.30
2006,12,25,07,29,6.80
2006,12,25,07,30,7.40
2006,12,25,07,31,3.60
2006,12,25,07,32,3.50
2006,12,25,07,33,5.40
2006,12,25,07,34,2.00
2006,12,25,07,35,4.10
2006,12,25,07,36,6.80
2006,12,25,07,37,3.10
2006,12,25,07,38,4.80
2006,12,25,07,39,7.50
2006,12,25,07,40,2.50
2006,12,25,07,41,1.60
2006,12,25,07,42,0.30
2006,12,25,07,43,1.80
2006,12,25,07,44,3.20
2006,12,25,07,45,2.90
2006,12,25,07,46,1.90
2006,12,25,07,47,0.00
2006,12,25,07,48,0.10
2006,12,25,07,49,0.20
2006,12,25,07,50,0.00
2006,12,25,07,51,0.50
2006,12,25,07,52,1.60
2006,12,25,07,53,1.50
2006,12,25,07,54,2.00
2006,12,25,07,55,2.10
2006,12,25,07,56,1.70
2006,12,25,07,57,0.40
2006,12,25,07,58,0.30
2006,12,25,07,59,0.20
2006,12,25,08,00,0.60
2006,12,25,08,01,1.50
2006,12,25,08,02,0.40
2006,12,25,08,03,0.60
2006,12,25,08,04,1.50
2006,12,25,08,05,1.60
2006,12,25,08,06,0.30
2006,12,25,08,07,0.90
2006,12,25,08,08,1.20
2006,12,25,08,09,1.70
2006,12,25,08,10,1.10
2006,12,25,08,11,1.20
2006,12,25,08,12,1.20
2006,12,25,08,13,0.00
2006,12,25,08,14,1.60
2006,12,25,08,15,1.80
2006,12,25,08,16,0.80
2006,12,25,08,17,0.70
2006,12,25,08,18,1.20
2006,12,25,08,19,2.50
2006,12,25,08,20,2.40
2006,12,25,08,21,2.50
2006,12,25,08,22,2.40
2006,12,25,08,23,2.40
2006,12,25,08,24,2.50
2006,12,25,08,25,1.10
2006,12,25,08,26,2.50
2006,12,25,08,27,1.80
2006,12,25,08,28,2.50
2006,12,25,08,29,1.40
2006,12,25,08,30,0.20
2006,12,25,08,31,0.10
2006,12,25,08,32,0.10
2006,12,25,08,33,0.30
2006,12,25,08,34,2.80
2006,12,25,08,35,3.90
2006,12,25,08,36,4.60
2006,12,25,08,37,3.70
2006,12,25,08,38,3.90
2006,12,25,08,39,1.70
2006,12,25,08,40,1.50
2006,12,25,08,41,1.00
2006,12,25,08,42,0.30
2006,12,25,08,43,0.00
2006,12,25,08,44,0.20
2006,12,25,08,45,0.30
2006,12,25,08,46,1.10
2006,12,25,08,47,1.40
2006,12,25,08,48,0.60
2006,12,25,08,49,0.00
2006,12,25,08,50,0.00
2006,12,25,08,51,0.30
2006,12,25,08,52,0.30
2006,12,25,08,53,0.10
2006,12,25,08,54,0.20
2006,12,25,08,55,0.10
2006,12,25,08,56,1.90
2006,12,25,08,57,1.50
2006,12,25,08,58,2.10
2006,12,25,08,59,2.00
2006,12,25,09,00,1.40
2006,12,25,09,01,1.00
2006,12,25,09,02,1.90
2006,12,25,09,03,1.70
2006,12,25,09,04,1.90
2006,12,25,09,05,3.10
2006,12,25,09,06,3.90
2006,12,25,09,07,3.10
2006,12,25,09,08,2.10
2006,12,25,09,09,2.00
2006,12,25,09,10,2.50
2006,12,25,09,11,2.50
2006,12,25,09,12,2.50
2006,12,25,09,13,1.50
2006,12,25,09,14,0.80
2006,12,25,09,15,1.30
2006,12,25,09,16,1.90
2006,12,25,09,17,1.80
2006,12,25,09,18,1.40
2006,12,25,09,19,2.30
2006,12,25,09,20,3.60
2006,12,25,09,21,4.10
2006,12,25,09,22,3.70
2006,12,25,09,23,4.10
2006,12,25,09,24,5.80
2006,12,25,09,25,6.40
2006,12,25,09,26,6.80
2006,12,25,09,27,7.20
2006,12,25,09,28,7.80
2006,12,25,09,29,7.00
2006,12,25,09,30,5.80
2006,12,25,09,31,6.50
2006,12,25,09,32,6.00
2006,12,25,09,33,6.00
2006,12,25,09,34,5.00
2006,12,25,09,35,5.10
2006,12,25,09,36,4.60
2006,12,25,09,37,4.10
2006,12,25,09,38,2.70
2006,12,25,09,39,2.70
2006,12,25,09,40,1.90
2006,12,25,09,41,2.20
2006,12,25,09,42,0.00
2006,12,25,09,43,0.00
2006,12,25,09,44,0.00
2006,12,25,09,45,0.00
2006,12,25,09,46,0.00
2006,12,25,09,47,0.10
2006,12,25,09,48,0.00
2006,12,25,09,49,0.00
2006,12,25,09,50,0.00
2006,12,25,09,51,0.00
2006,12,25,09,52,0.00
2006,12,25,09,53,0.20
2006,12,25,09,54,2.80
2006,12,25,09,55,5.00
2006,12,25,09,56,4.20
2006,12,25,09,57,3.90
2006,12,25,09,58,0.60
2006,12,25,09,59,0.20
2006,12,25,10,00,0.90
2006,12,25,10,01,0.10
2006,12,25,10,02,0.30
2006,12,25,10,03,1.50
2006,12,25,10,04,2.00
2006,12,25,10,05,1.20
2006,12,25,10,06,0.10
2006,12,25,10,07,0.30
2006,12,25,10,08,1.90
2006,12,25,10,09,1.80
2006,12,25,10,10,0.20
2006,12,25,10,11,0.00
2006,12,25,10,12,0.00
2006,12,25,10,13,2.20
2006,12,25,10,14,2.20
2006,12,25,10,15,3.90
2006,12,25,10,16,1.60
2006,12,25,10,17,3.70
2006,12,25,10,18,2.70
2006,12,25,10,19,3.20
2006,12,25,10,20,6.00
2006,12,25,10,21,3.70
2006,12,25,10,22,4.00
2006,12,25,10,23,5.50
2006,12,25,10,24,6.50
2006,12,25,10,25,5.40
2006,12,25,10,26,3.60
2006,12,25,10,27,4.30
2006,12,25,10,28,6.50
2006,12,25,10,29,7.60
2006,12,25,10,30,7.60
2006,12,25,10,31,7.20
2006,12,25,10,32,7.50
2006,12,25,10,33,6.00
2006,12,25,10,34,9.80
2006,12,25,10,35,5.50
2006,12,25,10,36,5.60
2006,12,25,10,37,4.40
2006,12,25,10,38,5.70
2006,12,25,10,39,6.50
2006,12,25,10,40,7.20
2006,12,25,10,41,7.80
2006,12,25,10,42,5.90
2006,12,25,10,43,5.10
2006,12,25,10,44,7.20
2006,12,25,10,45,6.40
2006,12,25,10,46,5.20
2006,12,25,10,47,7.20
2006,12,25,10,48,5.80
2006,12,25,10,49,9.90
2006,12,25,10,50,8.90
2006,12,25,10,51,8.40
2006,12,25,10,52,7.10
2006,12,25,10,53,8.60
2006,12,25,10,54,6.80
2006,12,25,10,55,9.80
2006,12,25,10,56,11.80
2006,12,25,10,57,8.60
2006,12,25,10,58,9.00
2006,12,25,10,59,5.40
2006,12,25,11,00,6.70
2006,12,25,11,01,8.20
2006,12,25,11,02,8.90
2006,12,25,11,03,11.40
2006,12,25,11,04,7.00
2006,12,25,11,05,7.90
2006,12,25,11,06,8.80
2006,12,25,11,07,7.20
2006,12,25,11,08,11.40
2006,12,25,11,09,10.70
2006,12,25,11,10,14.10
2006,12,25,11,11,6.80
2006,12,25,11,12,6.40
2006,12,25,11,13,11.40
2006,12,25,11,14,8.90
2006,12,25,11,15,9.70
2006,12,25,11,16,16.10
2006,12,25,11,17,12.70
2006,12,25,11,18,11.60
2006,12,25,11,19,9.70
2006,12,25,11,20,11.80
2006,12,25,11,21,13.40
2006,12,25,11,22,7.60
2006,12,25,11,23,6.40
2006,12,25,11,24,5.00
2006,12,25,11,25,8.10
2006,12,25,11,26,9.70
2006,12,25,11,27,7.80
2006,12,25,11,28,13.40
2006,12,25,11,29,13.10
2006,12,25,11,30,10.90
2006,12,25,11,31,8.70
2006,12,25,11,32,7.70
2006,12,25,11,33,8.60
2006,12,25,11,34,9.30
2006,12,25,11,35,13.60
2006,12,25,11,36,11.30
2006,12,25,11,37,7.90
2006,12,25,11,38,11.80
2006,12,25,11,39,9.70
2006,12,25,11,40,9.60
2006,12,25,11,41,11.80
2006,12,25,11,42,10.70
2006,12,25,11,43,15.00
2006,12,25,11,44,10.50
2006,12,25,11,45,10.70
2006,12,25,11,46,7.20
2006,12,25,11,47,6.90
2006,12,25,11,48,9.80
2006,12,25,11,49,4.80
2006,12,25,11,50,8.20
2006,12,25,11,51,6.70
2006,12,25,11,52,7.00
2006,12,25,11,53,9.30
2006,12,25,11,54,9.70
2006,12,25,11,55,9.20
2006,12,25,11,56,7.60
2006,12,25,11,57,3.40
2006,12,25,11,58,3.90
2006,12,25,11,59,11.30
2006,12,25,12,00,10.10
2006,12,25,12,01,6.80
2006,12,25,12,02,7.40
2006,12,25,12,03,10.30
2006,12,25,12,04,11.50
2006,12,25,12,05,12.60
2006,12,25,12,06,14.20
2006,12,25,12,07,13.50
2006,12,25,12,08,10.90
2006,12,25,12,09,5.50
2006,12,25,12,10,6.80
2006,12,25,12,11,7.60
2006,12,25,12,12,8.30
2006,12,25,12,13,6.10
2006,12,25,12,14,6.70
2006,12,25,12,15,7.20
2006,12,25,12,16,9.10
2006,12,25,12,17,8.20
2006,12,25,12,18,5.90
2006,12,25,12,19,7.60
2006,12,25,12,20,7.30
2006,12,25,12,21,9.50
2006,12,25,12,22,9.40
2006,12,25,12,23,8.00
2006,12,25,12,24,6.70
2006,12,25,12,25,6.00
2006,12,25,12,26,7.20
2006,12,25,12,27,9.70
2006,12,25,12,28,6.40
2006,12,25,12,29,8.10
2006,12,25,12,30,8.20
2006,12,25,12,31,5.60
2006,12,25,12,32,5.10
2006,12,25,12,33,6.40
2006,12,25,12,34,6.40
2006,12,25,12,35,6.40
2006,12,25,12,36,6.70
2006,12,25,12,37,3.90
2006,12,25,12,38,1.70
2006,12,25,12,39,3.10
2006,12,25,12,40,3.10
2006,12,25,12,41,4.20
2006,12,25,12,42,5.10
2006,12,25,12,43,6.20
2006,12,25,12,44,8.10
2006,12,25,12,45,8.70
2006,12,25,12,46,8.00
2006,12,25,12,47,7.40
2006,12,25,12,48,9.70
2006,12,25,12,49,10.20
2006,12,25,12,50,5.70
2006,12,25,12,51,5.40
2006,12,25,12,52,3.10
2006,12,25,12,53,5.30
2006,12,25,12,54,4.70
2006,12,25,12,55,6.00
2006,12,25,12,56,7.90
2006,12,25,12,57,7.20
2006,12,25,12,58,6.10
2006,12,25,12,59,5.00
2006,12,25,13,00,6.80
2006,12,25,13,01,5.60
2006,12,25,13,02,4.10
2006,12,25,13,03,5.40
2006,12,25,13,04,8.20
2006,12,25,13,05,8.90
2006,12,25,13,06,10.30
2006,12,25,13,07,8.90
2006,12,25,13,08,8.00
2006,12,25,13,09,8.50
2006,12,25,13,10,8.10
2006,12,25,13,11,10.50
2006,12,25,13,12,11.80
2006,12,25,13,13,6.40
2006,12,25,13,14,6.30
2006,12,25,13,15,7.80
2006,12,25,13,16,8.70
2006,12,25,13,17,7.20
2006,12,25,13,18,5.20
2006,12,25,13,19,8.40
2006,12,25,13,20,7.60
2006,12,25,13,21,10.50
2006,12,25,13,22,9.70
2006,12,25,13,23,10.90
2006,12,25,13,24,7.30
2006,12,25,13,25,7.10
2006,12,25,13,26,6.80
2006,12,25,13,27,6.60
2006,12,25,13,28,6.90
2006,12,25,13,29,8.40
2006,12,25,13,30,9.80
2006,12,25,13,31,8.20
2006,12,25,13,32,9.30
2006,12,25,13,33,7.20
2006,12,25,13,34,7.30
2006,12,25,13,35,5.80
2006,12,25,13,36,7.80
2006,12,25,13,37,7.70
2006,12,25,13,38,7.20
2006,12,25,13,39,8.40
2006,12,25,13,40,5.40
2006,12,25,13,41,6.90
2006,12,25,13,42,6.10
2006,12,25,13,43,7.30
2006,12,25,13,44,3.90
2006,12,25,13,45,2.30
2006,12,25,13,46,6.50
2006,12,25,13,47,7.70
2006,12,25,13,48,5.10
2006,12,25,13,49,2.50
2006,12,25,13,50,5.00
2006,12,25,13,51,10.60
2006,12,25,13,52,9.20
2006,12,25,13,53,5.20
2006,12,25,13,54,6.70
2006,12,25,13,55,4.50
2006,12,25,13,56,2.00
2006,12,25,13,57,0.70
2006,12,25,13,58,3.90
2006,12,25,13,59,4.30
2006,12,25,14,00,4.70
2006,12,25,14,01,6.40
2006,12,25,14,02,5.70
2006,12,25,14,03,5.00
2006,12,25,14,04,3.70
2006,12,25,14,05,5.60
2006,12,25,14,06,5.90
2006,12,25,14,07,3.60
2006,12,25,14,08,5.30
2006,12,25,14,09,3.00
2006,12,25,14,10,3.30
2006,12,25,14,11,3.20
2006,12,25,14,12,6.40
2006,12,25,14,13,7.30
2006,12,25,14,14,7.80
2006,12,25,14,15,6.80
2006,12,25,14,16,8.60
2006,12,25,14,17,8.60
2006,12,25,14,18,7.20
2006,12,25,14,19,8.30
2006,12,25,14,20,11.10
2006,12,25,14,21,10.50
2006,12,25,14,22,10.00
2006,12,25,14,23,8.50
2006,12,25,14,24,9.60
2006,12,25,14,25,10.50
2006,12,25,14,26,13.40
2006,12,25,14,27,11.00
2006,12,25,14,28,8.60
2006,12,25,14,29,3.50
2006,12,25,14,30,3.20
2006,12,25,14,31,3.20
2006,12,25,14,32,3.20
2006,12,25,14,33,3.20
2006,12,25,14,34,3.20
2006,12,25,14,35,9.70
2006,12,25,14,36,11.20
2006,12,25,14,37,14.00
2006,12,25,14,38,9.10
2006,12,25,14,39,10.10
2006,12,25,14,40,11.00
2006,12,25,14,41,12.30
2006,12,25,14,42,9.50
2006,12,25,14,43,9.00
2006,12,25,14,44,8.50
2006,12,25,14,45,9.00
2006,12,25,14,46,12.60
2006,12,25,14,47,7.40
2006,12,25,14,48,10.30
2006,12,25,14,49,12.30
2006,12,25,14,50,9.20
2006,12,25,14,51,9.20
2006,12,25,14,52,9.50
2006,12,25,14,53,10.90
2006,12,25,14,54,9.70
2006,12,25,14,55,4.70
2006,12,25,14,56,6.90
2006,12,25,14,57,6.00
2006,12,25,14,58,5.90
2006,12,25,14,59,8.00
2006,12,25,15,00,9.00
2006,12,25,15,01,6.00
2006,12,25,15,02,7.60
2006,12,25,15,03,6.60
2006,12,25,15,04,4.50
2006,12,25,15,05,4.80
2006,12,25,15,06,6.90
2006,12,25,15,07,6.00
2006,12,25,15,08,4.70
2006,12,25,15,09,5.60
2006,12,25,15,10,6.40
2006,12,25,15,11,8.80
2006,12,25,15,12,6.90
2006,12,25,15,13,3.60
2006,12,25,15,14,5.50
2006,12,25,15,15,7.80
2006,12,25,15,16,5.40
2006,12,25,15,17,5.80
2006,12,25,15,18,6.40
2006,12,25,15,19,8.20
2006,12,25,15,20,8.50
2006,12,25,15,21,7.10
2006,12,25,15,22,10.80
2006,12,25,15,23,8.50
2006,12,25,15,24,6.40
2006,12,25,15,25,10.20
2006,12,25,15,26,9.70
2006,12,25,15,27,7.20
2006,12,25,15,28,10.10
2006,12,25,15,29,9.70
2006,12,25,15,30,12.30
2006,12,25,15,31,8.90
2006,12,25,15,32,7.60
2006,12,25,15,33,7.60
2006,12,25,15,34,7.10
2006,12,25,15,35,7.20
2006,12,25,15,36,8.50
2006,12,25,15,37,6.30
2006,12,25,15,38,8.70
2006,12,25,15,39,10.10
2006,12,25,15,40,8.60
2006,12,25,15,41,9.00
2006,12,25,15,42,9.50
2006,12,25,15,43,10.90
2006,12,25,15,44,10.80
2006,12,25,15,45,7.70
2006,12,25,15,46,5.80
2006,12,25,15,47,7.40
2006,12,25,15,48,6.40
2006,12,25,15,49,5.80
2006,12,25,15,50,3.60
2006,12,25,15,51,5.40
2006,12,25,15,52,2.80
2006,12,25,15,53,1.20
2006,12,25,15,54,1.30
2006,12,25,15,55,1.60
2006,12,25,15,56,1.50
2006,12,25,15,57,2.40
2006,12,25,15,58,1.50
2006,12,25,15,59,0.30
2006,12,25,16,00,1.20
2006,12,25,16,01,2.20
2006,12,25,16,02,1.90
2006,12,25,16,03,1.50
2006,12,25,16,04,1.50
2006,12,25,16,05,1.80
2006,12,25,16,06,0.00
2006,12,25,16,07,0.20
2006,12,25,16,08,0.00
2006,12,25,16,09,0.00
2006,12,25,16,10,0.10
2006,12,25,16,11,0.20
2006,12,25,16,12,0.00
2006,12,25,16,13,0.00
2006,12,25,16,14,0.00
2006,12,25,16,15,0.00
2006,12,25,16,16,0.00
2006,12,25,16,17,0.00
2006,12,25,16,18,1.00
2006,12,25,16,19,3.00
2006,12,25,16,20,2.80
2006,12,25,16,21,4.10
2006,12,25,16,22,1.90
2006,12,25,16,23,0.20
2006,12,25,16,24,0.00
2006,12,25,16,25,0.00
2006,12,25,16,26,0.00
2006,12,25,16,27,0.00
2006,12,25,16,28,0.00
2006,12,25,16,29,0.00
2006,12,25,16,30,0.10
2006,12,25,16,31,0.00
2006,12,25,16,32,0.00
2006,12,25,16,33,0.00
2006,12,25,16,34,0.00
2006,12,25,16,35,0.00
2006,12,25,16,36,0.00
2006,12,25,16,37,0.00
2006,12,25,16,38,0.00
2006,12,25,16,39,0.00
2006,12,25,16,40,0.00
2006,12,25,16,41,0.00
2006,12,25,16,42,0.00
2006,12,25,16,43,0.00
2006,12,25,16,44,0.00
2006,12,25,16,45,0.00
2006,12,25,16,46,0.00
2006,12,25,16,47,0.00
2006,12,25,16,48,0.00
2006,12,25,16,49,0.00
2006,12,25,16,50,0.00
2006,12,25,16,51,0.00
2006,12,25,16,52,0.00
2006,12,25,16,53,0.00
2006,12,25,16,54,0.00
2006,12,25,16,55,0.00
2006,12,25,16,56,0.00
2006,12,25,16,57,0.00
2006,12,25,16,58,0.00
2006,12,25,16,59,0.00
2006,12,25,17,00,0.10
2006,12,25,17,01,0.00
2006,12,25,17,02,0.00
2006,12,25,17,03,0.00
2006,12,25,17,04,0.00
2006,12,25,17,05,0.00
2006,12,25,17,06,0.00
2006,12,25,17,07,0.00
2006,12,25,17,08,0.00
2006,12,25,17,09,0.00
2006,12,25,17,10,0.00
2006,12,25,17,11,0.00
2006,12,25,17,12,0.00
2006,12,25,17,13,0.00
2006,12,25,17,14,0.00
2006,12,25,17,15,0.50
2006,12,25,17,16,0.00
2006,12,25,17,17,0.00
2006,12,25,17,18,0.00
2006,12,25,17,19,0.00
2006,12,25,17,20,0.00
2006,12,25,17,21,0.20
2006,12,25,17,22,1.10
2006,12,25,17,23,0.40
2006,12,25,17,24,0.70
2006,12,25,17,25,0.00
2006,12,25,17,26,0.00
2006,12,25,17,27,0.00
2006,12,25,17,28,0.00
2006,12,25,17,29,0.00
2006,12,25,17,30,0.30
2006,12,25,17,31,1.20
2006,12,25,17,32,1.10
2006,12,25,17,33,0.80
2006,12,25,17,34,1.00
2006,12,25,17,35,0.50
2006,12,25,17,36,1.30
2006,12,25,17,37,1.10
2006,12,25,17,38,0.00
2006,12,25,17,39,0.00
2006,12,25,17,40,0.00
2006,12,25,17,41,0.00
2006,12,25,17,42,0.00
2006,12,25,17,43,0.00
2006,12,25,17,44,0.00
2006,12,25,17,45,0.10
2006,12,25,17,46,0.10
2006,12,25,17,47,0.10
2006,12,25,17,48,0.90
2006,12,25,17,49,0.60
2006,12,25,17,50,1.30
2006,12,25,17,51,1.10
2006,12,25,17,52,1.20
2006,12,25,17,53,1.10
2006,12,25,17,54,1.00
2006,12,25,17,55,1.90
2006,12,25,17,56,1.90
2006,12,25,17,57,0.60
2006,12,25,17,58,0.10
2006,12,25,17,59,0.10
2006,12,25,18,00,0.10
2006,12,25,18,01,0.20
2006,12,25,18,02,1.10